星链-1696 (STARLINK-1696 )

导读 | 豆包AI

STARLINK-1696是美国太空探索技术公司星链星座的卫星,由美国于2020年10月6日发射入轨,属于星链互联网项目的组网卫星之一。星链旨在构建全球卫星互联网,该卫星承担着为地面用户提供低延迟、高速率互联网接入服务的任务,目前已成为近地轨道大规模星座中的一员。

基本信息
目录编号:
46545
目录名称:
STARLINK-1696
国际标识:
2020-070P
轨道中心:
EARTH
卫星名称:
星链-1696
卫星全名:
星链-1696 (STARLINK-1696 )
卫星状态:
已陨落 最后检测时间 2025-04-29
发射日期:
2020-10-06 UTC
国别 :
美国 (US)
星等 :
--
轨道信息
数据来源 国际轨道数据
星历时间: 2025-04-29T08:34:11+0800
轨道信息已过期319天
半长轴: 6526.764km
偏心率: 0.0005323
轨道倾角: 53.018°
近地点辐角 252.459°
升交点赤经 105.689°
平近点角 221.668°
近地点: 145.154km
远地点: 152.104km
周期: 87.459分钟
每日圈数: 16.46478
详细信息
固有亮度:
5
最大亮度:
2.5
卫星平台:
Starlink V1.0
覆盖范围:
全球
运营商:
太空探索技术公司
运营商所在国:
美国
制造商(研发单位):
太空探索技术公司
制造商所在国:
美国
使用方式:
暂无
卫星简介
星链(Starlink)计划是由太空探索技术公司(SpaceX)提出的一个巨型低轨卫星互联网星座项目,计划在2019年至2024年间在太空搭建由约1.2万颗卫星组成的“星链”网络,其中1584颗将部署在地球上空550千米处的近地轨道,并从2020年开始工作。该卫星仍在工作。